KC3WWU Weather Reports


time (UTC)temp
F
wind
direction
speed
knots
gust
knots
rain 1hr
in
rain 24hr
in
rain mn
in
humidity
%
barometer
mb
20260504204614 70 49 1.7 1.7 0.00 0.00 0.00 49 1005.6
20260504204112 69 181 0.9 1.7 0.00 0.00 0.00 51 1005.7
20260504203610 69 341 1.7 2.6 0.00 0.00 0.00 50 1005.9
20260504203108 70 316 3.5 3.5 0.00 0.00 0.00 48 1005.8
20260504202602 68 315 5.2 7.0 0.00 0.00 0.00 49 1005.9
20260504202100 68 40 1.7 2.6 0.00 0.00 0.00 51 1005.8
20260504201556 69 45 0.9 0.9 0.00 0.00 0.00 50 1005.8
20260504201055 68 223 0.9 1.7 0.00 0.00 0.00 49 1005.9
20260504200550 68 14 0.9 0.9 0.00 0.00 0.00 50 1006.0
20260504200048 69 71 0.0 0.9 0.00 0.00 0.00 47 1005.9
20260504195543 70 48 0.9 0.9 0.00 0.00 0.00 47 1006.0
20260504195040 70 78 0.0 0.9 0.00 0.00 0.00 48 1006.1
20260504194537 69 348 5.2 7.0 0.00 0.00 0.00 48 1006.4
20260504194032 70 108 5.2 7.8 0.00 0.00 0.00 47 1006.1
20260504193529 69 284 6.1 7.8 0.00 0.00 0.00 48 1006.1
20260504193028 70 341 2.6 2.6 0.00 0.00 0.00 46 1006.4
20260504192526 69 86 0.9 1.7 0.00 0.00 0.00 46 1006.6
20260504192024 70 287 8.7 11.3 0.00 0.00 0.00 47 1006.4
20260504191521 71 77 1.7 1.7 0.00 0.00 0.00 46 1006.3
20260504191017 70 46 2.6 2.6 0.00 0.00 0.00 47 1007.0
20260504190513 69 342 7.0 7.8 0.00 0.00 0.00 47 1007.0
20260504190010 68 344 8.7 9.6 0.00 0.00 0.00 48 1006.7
20260504185507 70 248 7.8 11.3 0.00 0.00 0.00 46 1007.1
20260504185003 71 272 2.6 5.2 0.00 0.00 0.00 48 1006.8
20260504184459 70 331 7.0 9.6 0.00 0.00 0.00 44 1006.8
20260504183954 69 2 2.6 3.5 0.00 0.00 0.00 48 1007.1
20260504183452 69 303 5.2 7.0 0.00 0.00 0.00 48 1007.0
20260504182950 70 28 1.7 2.6 0.00 0.00 0.00 47 1007.1
20260504182446 70 322 2.6 5.2 0.00 0.00 0.00 47 1007.0
20260504181944 68 304 5.2 8.7 0.00 0.00 0.00 46 1007.1
20260504181440 69 342 5.2 7.0 0.00 0.00 0.00 46 1007.1
20260504180939 69 314 4.3 6.1 0.00 0.00 0.00 49 1007.3
20260504180438 70 283 5.2 7.0 0.00 0.00 0.00 46 1007.4
20260504175936 69 17 3.5 3.5 0.00 0.00 0.00 45 1007.4
20260504175432 69 132 2.6 2.6 0.00 0.00 0.00 46 1007.3
20260504174930 68 68 2.6 7.0 0.00 0.00 0.00 46 1007.6
20260504174428 68 346 4.3 11.3 0.00 0.00 0.00 47 1007.5
20260504173925 68 58 2.6 3.5 0.00 0.00 0.00 45 1007.5
20260504173421 69 330 10.4 13.9 0.00 0.00 0.00 45 1007.8
20260504172919 68 72 1.7 2.6 0.00 0.00 0.00 46 1007.8
20260504172415 67 275 6.1 7.0 0.00 0.00 0.00 46 1007.7
20260504171911 67 327 7.0 8.7 0.00 0.00 0.00 47 1007.8
20260504171408 67 11 1.7 2.6 0.00 0.00 0.00 48 1007.8
20260504170905 67 331 3.5 3.5 0.00 0.00 0.00 47 1007.9
20260504170401 67 267 9.6 13.9 0.00 0.00 0.00 48 1008.4
20260504160320 65 344 7.8 11.3 0.00 0.00 0.00 49 1008.9
20260504150745 62 81 0.9 1.7 0.00 0.00 0.00 49 1009.2
20260504150242 61 68 0.0 0.9 0.00 0.00 0.00 51 1009.0
20260504141211 57 14 1.7 1.7 0.00 0.00 0.00 53 1009.7
20260504140708 57 356 3.5 3.5 0.00 0.00 0.00 55 1009.6
20260504140203 56 56 1.7 1.7 0.00 0.00 0.00 55 1009.5
20260504130632 51 76 1.7 2.6 0.00 0.00 0.00 61 1009.9
20260504130129 51 337 1.7 1.7 0.00 0.00 0.00 61 1009.7
20260504110520 44 40 0.9 1.7 0.00 0.00 0.00 70 1009.8
20260504100442 43 42 1.7 2.6 0.00 0.00 0.00 72 1009.7
20260504081840 44 43 0.9 1.7 0.00 0.00 0.00 66 1010.4
20260504081337 43 60 1.7 1.7 0.00 0.00 0.00 66 1010.6
20260504080833 43 36 0.9 0.9 0.00 0.00 0.00 67 1010.4
20260504080330 43 46 0.0 0.0 0.00 0.00 0.00 67 1010.6
20260504070258 41 63 0.0 0.0 0.00 0.00 0.00 71 1010.5
20260504060218 37 57 0.0 0.0 0.00 0.00 0.00 82 1011.1
20260504050646 35 67 0.0 0.0 0.00 0.00 0.00 92 1011.5
20260504050143 35 68 0.0 0.0 0.00 0.00 0.00 93 1011.7
20260504045640 35 62 0.0 0.0 0.00 0.00 0.00 92 1011.5
20260504045140 35 62 0.0 0.0 0.00 0.00 0.00 92 1011.6
20260504044638 35 63 0.0 0.0 0.00 0.00 0.00 92 1011.4
20260504044135 35 62 0.0 0.0 0.00 0.00 0.00 92 1011.2
20260504043632 35 62 0.0 0.0 0.00 0.00 0.00 91 1011.7
20260504043129 35 62 0.0 0.0 0.00 0.00 0.00 90 1011.5
20260504042626 36 62 0.0 0.0 0.00 0.00 0.00 90 1011.4
20260504042123 36 53 0.0 0.9 0.00 0.00 0.00 89 1011.3
20260504041618 36 53 0.0 0.0 0.00 0.00 0.00 87 1011.4
20260504041115 37 53 0.0 0.0 0.00 0.00 0.00 85 1011.3
20260504040612 39 64 0.0 0.0 0.00 0.00 0.00 84 1011.3
20260504040109 39 69 0.0 0.0 0.00 0.00 0.00 79 1011.4
20260504035606 40 74 0.0 0.9 0.00 0.00 0.00 77 1011.5
20260504035102 40 72 0.9 0.9 0.00 0.00 0.00 78 1011.5
20260504034600 40 66 0.0 0.0 0.00 0.00 0.00 78 1011.4
20260504034057 40 73 0.9 0.9 0.00 0.00 0.00 74 1011.3
20260504033555 41 79 0.9 0.9 0.00 0.00 0.00 76 1011.2
20260504033052 41 47 0.9 0.9 0.00 0.00 0.00 72 1011.3
20260504032549 40 77 0.9 0.9 0.00 0.00 0.00 79 1011.3
20260504032045 41 71 0.0 0.0 0.00 0.00 0.00 79 1011.6
20260504031542 41 75 0.0 0.0 0.00 0.00 0.00 74 1011.4
20260504031038 41 69 0.0 0.0 0.00 0.00 0.00 70 1011.5
20260504030536 41 68 0.0 0.0 0.00 0.00 0.00 75 1011.6
20260504030032 41 72 0.0 0.0 0.00 0.00 0.00 72 1011.7
20260504025530 42 82 0.9 0.9 0.00 0.00 0.00 74 1011.5
20260504025026 43 72 0.0 0.0 0.00 0.00 0.00 68 1011.5
20260504024523 43 62 0.0 0.0 0.00 0.00 0.00 71 1011.6
20260504024020 42 66 0.0 0.0 0.00 0.00 0.00 70 1011.7
20260504023517 42 74 0.0 0.9 0.00 0.00 0.00 72 1011.6
20260504023012 43 69 0.9 0.9 0.00 0.00 0.00 68 1011.5
20260504022508 43 68 0.9 0.9 0.00 0.00 0.00 67 1011.6
20260504022005 43 70 0.0 0.0 0.00 0.00 0.00 67 1011.8
20260504021503 43 58 0.0 0.9 0.00 0.00 0.00 67 1011.5
20260504020959 43 72 0.0 0.0 0.00 0.00 0.00 69 1011.7
20260504020456 43 71 0.0 0.0 0.00 0.00 0.00 69 1011.5
20260504015953 43 77 0.0 0.0 0.00 0.00 0.00 70 1011.7
20260504015449 42 77 0.0 0.0 0.00 0.00 0.00 70 1011.6
20260504014945 42 84 0.9 0.9 0.00 0.00 0.00 71 1011.5
20260504014441 42 69 0.0 0.0 0.00 0.00 0.00 70 1011.5
20260504013938 42 69 0.0 0.0 0.00 0.00 0.00 70 1011.4
20260504013437 42 86 0.9 0.9 0.00 0.00 0.00 70 1011.4
20260504012932 43 73 0.0 0.0 0.00 0.00 0.00 71 1011.5
20260504012431 44 178 1.7 2.6 0.00 0.00 0.00 66 1011.4
20260504011928 44 67 0.0 0.0 0.00 0.00 0.00 68 1011.2
20260504011425 44 74 0.9 0.9 0.00 0.00 0.00 68 1011.1
20260504010920 44 71 0.0 0.0 0.00 0.00 0.00 69 1011.5
20260504010416 44 61 0.0 0.0 0.00 0.00 0.00 66 1011.2
20260504005913 44 72 0.0 0.0 0.00 0.00 0.00 67 1011.2
20260504005409 44 49 0.0 0.9 0.00 0.00 0.00 67 1011.2
20260504004908 45 64 0.0 0.0 0.00 0.00 0.00 65 1011.4
20260504004405 45 61 0.0 0.0 0.00 0.00 0.00 64 1011.4
20260504003901 46 70 0.0 0.0 0.00 0.00 0.00 63 1011.2
20260504003358 47 73 0.0 0.0 0.00 0.00 0.00 62 1011.1
20260504002854 48 61 0.0 0.0 0.00 0.00 0.00 58 1011.0
20260504002351 48 42 0.9 0.9 0.00 0.00 0.00 56 1011.3
20260504001849 49 32 0.0 0.9 0.00 0.00 0.00 56 1011.2
20260504001346 49 70 0.9 0.9 0.00 0.00 0.00 55 1011.3
20260504000843 49 46 0.0 0.0 0.00 0.00 0.00 57 1011.1
20260504000340 50 5 1.7 1.7 0.00 0.00 0.00 53 1011.3
20260503235837 50 13 1.7 1.7 0.00 0.00 0.00 52 1011.1
20260503235335 50 31 0.9 0.9 0.00 0.00 0.00 52 1010.9
20260503234832 51 334 2.6 2.6 0.00 0.00 0.00 50 1011.1
20260503234330 51 27 1.7 2.6 0.00 0.00 0.00 51 1011.3
20260503233828 51 329 2.6 3.5 0.00 0.00 0.00 50 1011.0
20260503233323 52 24 2.6 2.6 0.00 0.00 0.00 49 1010.9
20260503232820 52 320 1.7 2.6 0.00 0.00 0.00 50 1011.1
20260503232318 52 338 1.7 2.6 0.00 0.00 0.00 50 1011.0
20260503231815 52 305 2.6 2.6 0.00 0.00 0.00 48 1011.1
20260503231312 53 305 1.7 2.6 0.00 0.00 0.00 48 1011.3
20260503230808 53 11 2.6 2.6 0.00 0.00 0.00 47 1011.0
20260503230305 53 310 5.2 7.0 0.00 0.00 0.00 46 1011.2
20260503225803 52 31 0.9 0.9 0.00 0.00 0.00 49 1011.3
20260503225258 52 324 2.6 2.6 0.00 0.00 0.00 48 1011.3
20260503224755 52 347 1.7 1.7 0.00 0.00 0.00 48 1011.2
20260503224252 53 280 5.2 7.0 0.00 0.00 0.00 47 1011.1
20260503223750 52 318 2.6 3.5 0.00 0.00 0.00 47 1011.0
20260503223247 52 2 1.7 2.6 0.00 0.00 0.00 50 1011.2
20260503222743 53 283 5.2 7.0 0.00 0.00 0.00 46 1011.2
20260503222241 54 301 3.5 3.5 0.00 0.00 0.00 45 1011.0
20260503221739 53 31 1.7 1.7 0.00 0.00 0.00 47 1011.4
20260503221237 53 292 2.6 3.5 0.00 0.00 0.00 46 1011.1
20260503220733 53 298 5.2 6.1 0.00 0.00 0.00 47 1011.2
20260503220230 52 318 7.8 8.7 0.00 0.00 0.00 46 1011.1
20260503215727 54 28 4.3 5.2 0.00 0.00 0.00 46 1011.1
20260503215224 55 314 5.2 6.1 0.00 0.00 0.00 44 1011.2
20260503214722 54 321 4.3 5.2 0.00 0.00 0.00 47 1011.3
20260503214219 53 30 0.9 0.9 0.00 0.00 0.00 48 1011.2
20260503213717 53 323 1.7 1.7 0.00 0.00 0.00 48 1011.2
20260503213214 53 286 3.5 3.5 0.00 0.00 0.00 46 1011.3
20260503212710 53 278 3.5 3.5 0.00 0.00 0.00 47 1011.3
20260503212208 53 305 4.3 5.2 0.00 0.00 0.00 45 1011.1
20260503211706 54 313 6.1 8.7 0.00 0.00 0.00 45 1011.3
20260503211201 54 332 1.7 2.6 0.00 0.00 0.00 45 1011.2
20260503210657 53 302 2.6 3.5 0.00 0.00 0.00 46 1011.1
20260503210155 53 282 3.5 5.2 0.00 0.00 0.00 45 1011.1
20260503205650 53 301 4.3 6.1 0.00 0.00 0.00 46 1011.3
20260503205146 54 304 3.5 3.5 0.00 0.00 0.00 44 1011.3